sat.trackr.live / text

‹ back to catalog

PEXT (BARD)

NORAD 64874 · 2025-154F

PAYLOAD ACTIVE UNKNOWN

§ Identity

Operator
Country
US
Launch date
2025-07-23
Launch site
AFWTR
Launch vehicle
Mass (kg)
RCS (m²)

External: N2YO · Heavens-Above · Gunter

§ Orbital elements

Epoch: 2026-05-25T04:52:51.517056Z

Period
94.72 min
Inclination
97.3973°
Eccentricity
0.0003294
Mean motion
15.20294150 rev/d
Perigee alt
502.7 km
Apogee alt
507.2 km
Semi-major
6,883.1 km
B*
1.3542e-4
RAAN
210.6465°
Arg perigee
37.1406°
Mean anomaly
323.0056°
Rev number
4,635

§ Raw data

PEXT (BARD)1 64874U 25154F   26145.20337404  .00002874  00000+0  13542-3 0  99952 64874  97.3973 210.6465 0003294  37.1406 323.0056 15.20294150 46358

JSON: /api/v1/satellites/64874 · /tle

For live sub-satellite position, see the globe view (requires WebGL).

§ Visibility from observer

Set your observer location to see the next 7 days of passes ≥ 10°. The values pass through the URL so the page stays shareable.

No JS? Fill the form by hand. The geolocation button needs JavaScript.

§ Radio — SatNOGS DB

ModeDescriptionDownlinkUplink
FM S-band telemetry 2.235 GHz
FM S-band telemetry 2.257 GHz

2 transmitters · refreshed weekly from db.satnogs.org